[[{"header":{"parameterUnit":"m.s-1","parameterCategory":1,"la1":30.2991,"la2":30.254,"lo1":-89.0895,"lo2":-89.0444,"dy":0.0017,"dx":0.0017,"nx":28,"ny":28,"refTime":"2025-05-23T21:00:00:Z","depth":0,"parameterNumber":2,"parameterNumberName":"U-component_of_WINDS"},"data":[0,0,0,0,0,0,0,0,0,0,0,0,0,0,0,0,0,0,0,0,0,0,0,0,0,0,0,0,0,0,0,0,0,0,0,0,0,0,0,0,0,0,0,0,0,0,0,0,0,0,0,0,0,0,0,0,0,0,-0.5864,-0.5863,0,-0.5738,-0.5736,-0.5735,-0.5646,-0.5645,-0.5645,-0.5644,-0.5514,-0.5512,-0.5509,0,0,0,0,0,0,0,0,0,0,0,0,0,-0.6029,-0.6027,-0.5864,-0.5863,-0.5861,-0.5738,-0.5736,-0.5734,-0.5646,-0.5645,-0.5645,-0.5644,-0.5515,-0.5512,-0.5509,0,0,0,0,0,0,0,0,0,0,0,0,0,-0.5936,-0.6026,-0.5865,-0.5802,-0.5795,-0.5738,-0.5736,-0.5734,-0.5646,-0.5645,-0.5644,-0.5643,-0.5516,-0.5512,-0.5508,-0.5503,0,0,-0.5495,-0.5493,0,0,0,0,0,0,0,0,-0.5941,-0.593,-0.5813,-0.5806,-0.5799,-0.5707,-0.5747,-0.5656,-0.5647,-0.5703,-0.5644,-0.5643,-0.5579,-0.557,-0.5548,-0.5497,-0.5491,-0.5495,-0.5492,-0.549,-0.5489,0,0,0,0,0,0,0,-0.5948,-0.5935,-0.5814,-0.5811,-0.5803,-0.5781,-0.5766,-0.5729,-0.5648,-0.5698,-0.5691,-0.5678,-0.5575,-0.5553,-0.5544,-0.5489,-0.5495,-0.5491,-0.5489,-0.5487,-0.5425,-0.5426,0,0,0,0,0,0,-0.5964,-0.5941,-0.5818,-0.581,-0.5869,-0.5778,-0.5762,-0.5737,-0.5649,-0.5634,-0.5679,-0.5674,-0.556,-0.555,-0.554,-0.5526,-0.549,-0.5486,-0.5484,-0.5424,-0.5426,-0.5426,0,0,0,0,0,0,-0.5968,-0.5954,-0.5823,-0.5874,-0.5855,-0.5777,-0.5749,-0.5735,-0.5713,-0.5634,-0.5619,-0.567,-0.5559,-0.5546,-0.5512,-0.552,-0.5485,-0.5481,-0.5423,-0.5425,-0.5426,-0.55,0,0,0,0,0,0,-0.5973,-0.5956,-0.5953,-0.5874,-0.5853,-0.5798,-0.575,-0.5734,-0.5706,-0.5698,-0.5622,-0.5609,-0.5557,-0.5519,-0.5508,-0.5514,-0.5477,-0.5422,-0.5424,-0.5426,-0.5497,-0.5504,-0.551,0,0,0,0,0,-0.5979,-0.5979,-0.5953,-0.5939,-0.5848,-0.5799,-0.5787,-0.5728,-0.5707,-0.5703,-0.5652,-0.5611,-0.5522,-0.5516,-0.5503,-0.5508,-0.5421,-0.5423,-0.5425,-0.5494,-0.5503,-0.551,0,0,0,0,0,0,-0.6061,-0.5968,-0.5938,-0.5913,-0.5864,-0.5784,-0.5778,-0.5739,-0.5696,-0.5691,-0.5619,-0.5603,-0.5577,-0.5539,-0.5535,-0.5498,-0.5466,-0.5466,-0.5523,-0.5531,-0.5537,-0.5546,-0.5474,0,0,0,0,0,-0.6077,-0.6045,-0.5965,-0.595,-0.5927,-0.5857,-0.5834,-0.5792,-0.5739,-0.5718,-0.5665,-0.5616,-0.5576,-0.5551,-0.5511,-0.5491,-0.5473,-0.5488,-0.5495,-0.5501,-0.5501,-0.5487,-0.5492,-0.5433,-0.5433,-0.5433,0,0,-0.6108,-0.6053,-0.6037,-0.5965,-0.5923,-0.5891,-0.584,-0.5809,-0.5785,-0.5714,-0.5678,-0.5638,-0.5578,-0.5551,-0.5537,-0.5519,-0.5513,-0.5504,-0.5509,-0.5505,-0.5489,-0.5495,-0.55,-0.5434,-0.5434,-0.5434,0,0,-0.6147,-0.6103,-0.6085,-0.6044,-0.598,-0.5933,-0.593,-0.5855,-0.5825,-0.5789,-0.5734,-0.5705,-0.5639,-0.5597,-0.5568,-0.5592,-0.5552,-0.5581,-0.5616,-0.5603,-0.5608,-0.5611,-0.5619,-0.5623,-0.5582,-0.5582,-0.5582,0,-0.6194,-0.6144,-0.6081,-0.6053,-0.6022,-0.5957,-0.5938,-0.5901,-0.5828,-0.5808,-0.5789,-0.5704,-0.5659,-0.5622,-0.5628,-0.5606,-0.5599,-0.5589,-0.5612,-0.5615,-0.5618,-0.5624,-0.5627,-0.5586,-0.5585,-0.5585,-0.5584,0,-0.6203,-0.617,-0.6163,-0.6093,-0.6062,-0.6039,-0.5973,-0.5949,-0.5911,-0.5866,-0.5829,-0.5773,-0.5719,-0.5708,-0.567,-0.5664,-0.5655,-0.5626,-0.5593,-0.5628,-0.5633,-0.5635,-0.5591,-0.559,-0.5589,-0.5588,0,0,-0.6291,-0.6186,-0.6185,-0.6152,-0.6077,-0.605,-0.6024,-0.5971,-0.5951,-0.5904,-0.5879,-0.5825,-0.5796,-0.5763,-0.572,-0.5709,-0.5731,-0.568,-0.5678,-0.5691,-0.572,-0.5742,-0.5746,-0.5704,-0.5705,-0.5705,-0.5725,0,-0.6318,-0.6266,-0.6209,-0.6178,-0.6145,-0.6082,-0.6059,-0.6011,-0.5968,-0.5934,-0.5887,-0.5849,-0.5816,-0.5795,-0.5781,-0.5731,-0.5735,-0.5729,-0.568,-0.5679,-0.5696,-0.5748,-0.5771,-0.5793,-0.5726,-0.5726,-0.5727,0,-0.6343,-0.6297,-0.6262,-0.6189,-0.6174,-0.6154,-0.61,-0.6069,-0.6013,-0.5983,-0.5946,-0.59,-0.5869,-0.5841,-0.5796,-0.5793,-0.577,-0.5743,-0.5742,-0.5734,-0.5704,-0.5741,-0.5798,-0.5801,-0.5729,-0.5729,-0.5729,0,-0.6409,-0.6339,-0.6308,-0.6282,-0.6197,-0.6184,-0.6148,-0.6091,-0.6063,-0.6017,-0.5997,-0.5949,-0.5922,-0.5885,-0.5827,-0.5812,-0.5788,-0.5756,-0.5762,-0.5763,-0.5758,-0.5759,-0.5812,-0.5746,-0.5746,-0.5746,-0.5746,0,-0.6444,-0.6425,-0.6336,-0.6317,-0.6294,-0.6228,-0.6207,-0.6165,-0.6115,-0.6087,-0.603,-0.6005,-0.5931,-0.5897,-0.5852,-0.5821,-0.581,-0.5784,-0.5772,-0.5788,-0.5792,-0.5771,-0.5768,-0.5747,-0.5747,-0.5746,-0.5746,0,-0.6513,-0.6453,-0.6415,-0.6338,-0.6318,-0.6304,-0.6237,-0.6216,-0.6171,-0.6136,-0.6124,-0.6053,-0.601,-0.5949,-0.5887,-0.5857,-0.5833,-0.5814,-0.5852,-0.5844,-0.5853,-0.5853,-0.5893,-0.5895,-0.583,-0.5831,-0.5831,0,-0.6539,-0.6523,-0.6443,-0.642,-0.6385,-0.6349,-0.632,-0.6255,-0.6227,-0.6161,-0.6149,-0.6101,-0.606,-0.5994,-0.5937,-0.589,-0.5869,-0.5886,-0.5861,-0.5878,-0.5867,-0.5869,-0.5866,-0.5892,-0.5893,-0.5894,-0.5895,0,-0.6592,-0.6562,-0.6522,-0.6471,-0.6438,-0.6395,-0.635,-0.6334,-0.6259,-0.6231,-0.6186,-0.6154,-0.6091,-0.6045,-0.599,-0.5952,-0.5911,-0.5903,-0.5902,-0.5918,-0.5939,-0.5927,-0.5867,-0.5902,-0.5901,-0.5901,-0.59,-0.59,-0.6639,-0.6621,-0.6561,-0.6518,-0.6477,-0.6436,-0.6412,-0.6363,-0.6325,-0.6268,-0.6233,-0.6189,-0.6133,-0.6055,-0.602,-0.5985,-0.5968,-0.5966,-0.5966,-0.5966,-0.5971,-0.5946,-0.5975,-0.5975,-0.5974,-0.5974,-0.5974,0,-0.6687,-0.6646,-0.6607,-0.6544,-0.651,-0.6474,-0.6422,-0.6396,-0.6359,-0.631,-0.627,-0.6218,-0.6173,-0.6112,-0.6062,-0.6046,-0.6026,-0.6035,-0.6035,-0.6027,-0.599,-0.5995,-0.6052,-0.6052,-0.6052,-0.6052,-0.6052,-0.6052,-0.6708,-0.6675,-0.6639,-0.6585,-0.6544,-0.6501,-0.6474,-0.6435,-0.6395,-0.634,-0.6302,-0.6263,-0.6209,-0.6154,-0.6111,-0.6094,-0.6078,-0.6093,-0.6071,-0.6037,-0.603,-0.6023,-0.6028,-0.6091,-0.6091,-0.6111,-0.6111,-0.6111]},{"header":{"parameterUnit":"m.s-1","parameterCategory":1,"la1":30.2991,"la2":30.254,"lo1":-89.0895,"lo2":-89.0444,"dy":0.0017,"dx":0.0017,"nx":28,"ny":28,"refTime":"2025-05-23T21:00:00:Z","depth":0,"parameterNumber":3,"parameterNumberName":"V-component_of_WINDS"},"data":[0,0,0,0,0,0,0,0,0,0,0,0,0,0,0,0,0,0,0,0,0,0,0,0,0,0,0,0,0,0,0,0,0,0,0,0,0,0,0,0,0,0,0,0,0,0,0,0,0,0,0,0,0,0,0,0,0,0,4.1606,4.1605,0,4.1579,4.1579,4.1578,4.1577,4.1578,4.1578,4.1578,4.1546,4.1544,4.1543,0,0,0,0,0,0,0,0,0,0,0,0,0,4.1652,4.1651,4.1606,4.1605,4.1605,4.1579,4.1578,4.1578,4.1577,4.1578,4.1578,4.1578,4.1546,4.1545,4.1543,0,0,0,0,0,0,0,0,0,0,0,0,0,4.1629,4.1651,4.1606,4.1602,4.1601,4.1579,4.1578,4.1578,4.1577,4.1578,4.1578,4.1579,4.1546,4.1545,4.1543,4.1522,0,0,4.1538,4.1537,0,0,0,0,0,0,0,0,4.163,4.1627,4.1603,4.1602,4.1601,4.1582,4.1583,4.1559,4.1577,4.1586,4.1578,4.1579,4.1557,4.1554,4.1548,4.152,4.1519,4.1537,4.1536,4.1536,4.1535,0,0,0,0,0,0,0,4.1632,4.1629,4.1595,4.1602,4.1601,4.16,4.1597,4.1578,4.1569,4.1585,4.1585,4.1582,4.1557,4.155,4.1547,4.1518,4.1537,4.1536,4.1535,4.1534,4.1472,4.1471,0,0,0,0,0,0,4.1635,4.163,4.1596,4.1594,4.1618,4.1598,4.1595,4.1588,4.1569,4.1567,4.1582,4.1582,4.1553,4.1549,4.1546,4.152,4.1536,4.1534,4.1533,4.1472,4.1472,4.1471,0,0,0,0,0,0,4.1636,4.1632,4.1597,4.1612,4.1607,4.1597,4.1588,4.1587,4.158,4.1567,4.1564,4.1577,4.1553,4.1549,4.1528,4.1519,4.1533,4.1531,4.1473,4.1472,4.1471,4.1468,0,0,0,0,0,0,4.1637,4.1632,4.1625,4.1612,4.1607,4.1581,4.1588,4.1586,4.1577,4.1578,4.1561,4.1559,4.1553,4.1531,4.1526,4.1517,4.153,4.1474,4.1473,4.1471,4.1469,4.1467,4.1466,0,0,0,0,0,4.1639,4.1624,4.1625,4.1621,4.1598,4.158,4.1577,4.1572,4.1577,4.1569,4.156,4.1559,4.1521,4.1529,4.1524,4.1513,4.1474,4.1473,4.1472,4.147,4.1468,4.1466,0,0,0,0,0,0,4.1635,4.1623,4.1623,4.1604,4.1594,4.158,4.157,4.157,4.1556,4.1557,4.155,4.1546,4.1526,4.1517,4.1527,4.1492,4.1498,4.1495,4.1498,4.1496,4.1494,4.1497,4.1529,0,0,0,0,0,4.1632,4.1621,4.161,4.1594,4.1589,4.158,4.1573,4.157,4.1558,4.1553,4.1543,4.153,4.1515,4.1505,4.149,4.1468,4.1464,4.1458,4.1457,4.1455,4.1453,4.144,4.1438,4.1467,4.1467,4.1467,0,0,4.1626,4.1618,4.161,4.1593,4.1584,4.1571,4.1577,4.1562,4.1552,4.155,4.1531,4.1523,4.1508,4.1487,4.1476,4.1479,4.1444,4.1454,4.1453,4.1451,4.1439,4.1436,4.1434,4.1466,4.1466,4.1466,0,0,4.1608,4.16,4.1587,4.1578,4.1566,4.1561,4.1557,4.1544,4.154,4.1521,4.1519,4.1506,4.148,4.147,4.1461,4.1439,4.1438,4.1434,4.1426,4.1413,4.1411,4.1409,4.1401,4.1398,4.1432,4.1432,4.1432,0,4.1601,4.1582,4.1579,4.1565,4.1557,4.1557,4.1542,4.1533,4.1516,4.151,4.1514,4.1482,4.1472,4.1448,4.1443,4.1436,4.1431,4.1436,4.1412,4.141,4.1408,4.14,4.1397,4.1432,4.1432,4.1432,4.1432,0,4.1574,4.1561,4.1551,4.1537,4.1528,4.1514,4.1507,4.1498,4.1496,4.1489,4.1469,4.1457,4.1441,4.1435,4.1432,4.141,4.1412,4.1414,4.142,4.1405,4.1398,4.1395,4.1432,4.1432,4.1432,4.1432,0,0,4.1552,4.1537,4.1533,4.1527,4.1514,4.1503,4.1488,4.1473,4.1465,4.1453,4.144,4.1419,4.1421,4.1411,4.1407,4.1396,4.1379,4.1399,4.1398,4.1395,4.1354,4.1353,4.135,4.1378,4.1378,4.1377,4.1356,0,4.1532,4.1508,4.1505,4.1483,4.1471,4.147,4.1457,4.1447,4.144,4.1428,4.142,4.1406,4.1409,4.1403,4.1393,4.1384,4.1371,4.1385,4.1365,4.1364,4.1369,4.1346,4.1345,4.1325,4.1353,4.1352,4.1352,0,4.1506,4.1495,4.1473,4.1461,4.1456,4.1445,4.1431,4.142,4.1407,4.1404,4.1393,4.139,4.1374,4.1381,4.1357,4.1367,4.1358,4.1352,4.1351,4.1349,4.1357,4.1343,4.1318,4.1315,4.1347,4.1348,4.1348,0,4.1492,4.1472,4.1456,4.145,4.1437,4.1429,4.1422,4.1411,4.1402,4.139,4.1384,4.1369,4.136,4.1348,4.1341,4.1347,4.1317,4.1324,4.1313,4.1313,4.1307,4.1307,4.128,4.1301,4.1301,4.1301,4.1301,0,4.147,4.1456,4.145,4.144,4.1424,4.142,4.1403,4.1397,4.1387,4.1374,4.1372,4.136,4.1352,4.1338,4.1332,4.1313,4.1309,4.1305,4.1303,4.1305,4.1306,4.1299,4.13,4.1301,4.1301,4.1301,4.1301,0,4.1452,4.1447,4.143,4.1419,4.1416,4.1404,4.1394,4.1384,4.1378,4.1363,4.1359,4.1349,4.1333,4.1325,4.1304,4.13,4.1279,4.1278,4.1284,4.1283,4.1273,4.1274,4.124,4.1236,4.126,4.126,4.126,0,4.1439,4.1428,4.1417,4.1409,4.1403,4.1391,4.1383,4.1378,4.1369,4.1355,4.1346,4.133,4.1317,4.1292,4.1282,4.1266,4.1265,4.1254,4.1262,4.1264,4.1264,4.1265,4.1264,4.1253,4.1252,4.1252,4.1252,0,4.1415,4.1413,4.1402,4.1391,4.1381,4.1371,4.1361,4.1355,4.1348,4.1338,4.1323,4.1313,4.1293,4.1277,4.1261,4.1253,4.1251,4.125,4.1246,4.1248,4.1252,4.125,4.128,4.125,4.1251,4.1251,4.1251,4.1251,4.1398,4.1389,4.138,4.1368,4.136,4.1351,4.1341,4.1335,4.1323,4.1307,4.1305,4.1288,4.1276,4.1254,4.1245,4.1231,4.1233,4.1228,4.1227,4.1226,4.1226,4.1254,4.1228,4.1228,4.1228,4.1228,4.1228,0,4.1375,4.1369,4.1358,4.1345,4.1335,4.1336,4.1325,4.1317,4.1303,4.1293,4.1281,4.1263,4.1248,4.1237,4.1221,4.1212,4.1211,4.1208,4.1208,4.1206,4.1225,4.1229,4.1209,4.1209,4.1209,4.1209,4.1209,4.1209,4.1361,4.1346,4.1343,4.1324,4.1317,4.1303,4.1297,4.1288,4.128,4.1261,4.1249,4.1242,4.1231,4.1215,4.1201,4.1198,4.1192,4.1189,4.1186,4.1203,4.1205,4.1207,4.1211,4.1188,4.1188,4.1169,4.1169,4.1168]}]]